Location: Northcutt
(34.7304°N, 84.4305°W)
Time: 17:22:55
(UTC+00:00)

SR - Pass Details

Date: 13 October 2022
Orbit: 577 x 874 km, 66.7° (Epoch: 05 December)

Event Time Altitude Azimuth Distance (km) Brightness Sun altitude
Rises 10:23:25 0° 314° (NW) 3,182 - -16.9°
Reaches altitude 10° 10:26:37 10° 295° (WNW) 2,189 - -16.2°
Maximum altitude 10:29:43 17° 256° (WSW) 1,709 - -15.6°
Exits shadow 10:32:24 11° 219° (SW) 1,998 ? -15.0°
Drops below altitude 10° 10:32:41 10° 216° (SW) 2,061 ? -15.0°
Sets 10:35:36 0° 196° (SSW) 2,912 ? -14.4°
